Volver al catálogo

STARLINK-4621

ActivoComunicacionesSSO
NORAD 53676·PAYLOAD·🇺🇸 United States

Lanzado Aug 31, 2022 desde Vandenberg Space Force Base

Loading…

Próximos Pases (próximas 24 horas)

TLE

ActualizadoSource: CelesTrak SupGP

Época: Sep 15, 2026, 02:40 UTC

1 53676C 22105AE  26258.11159722  .00042970  00000+0  29832-2 0  2583
2 53676  97.2830 132.2270 0002469  89.4285 337.2055 15.05637624    17

Sigue STARLINK-4621 en tiempo real con AllMySat

Download on the App Store